Weather in Dolinnoe

Russia / Republic of Crimea     44°45′13″N   33°46′31″E
temp.,
°C
wind,
m/s
gust,
m/s
humid.,
%
clouds,
%
prec.,
mm/h
press.,
hPa
HPBL,
m
27 february, sat
sat2700:00+5ssw34870 0.0 102391
03:00+5ssw35900 0.0 1022101
06:00+4s33870 0.0 102060
09:00+6ssw36810 0.0 1020254
12:00+11sw57660 0.0 1019563
15:00+11wsw56700 0.0 1018567
18:00+8wsw23851 0.0 1017256
21:00+7nw129439 0.0 1018142
28 february, sun
sun2800:00+6n5892100 0.8 1019492
03:00+4n6883100 1.1 1019632
06:00+3n378098 0.1 1020626
09:00+3nnw468399 0.4 1021619
12:00+3nnw6986100 0.6 1022686
15:00+5nnw566994 0.8 1022946
18:00+4nnw478099 0.3 1022738
21:00+3nnw257797 0.6 1024579
1 march, mon
mon100:00+3nnw2481100 0.3 1025446
03:00+2n1395100 0.6 1025240
06:00+1nne1296100 0.3 1025139
09:00+1ne1293100 0.5 1026212
12:00+4nnw336159 0.1 1027999
15:00+5nnw445872 0.1 10271084
18:00+4nnw236287 0.0 10271014
21:00+3n227093 0.1 1029473
2 march, tue
tue200:00+1ene127757 0.0 103025
03:000e118029 0.0 103022
06:000e11810 0.0 103022
09:00+2e11710 0.0 1031161
12:00+5nw33580 0.0 1031964
15:00+5wnw44640 0.0 1030804
18:00+3wnw34749 0.0 1028690
21:00+4w257848 0.0 1027585
3 march, wed
wed300:00+4wsw2584100 0.0 1026337
03:00+5w3788100 0.0 1025335
06:00+4nw129476 0.1 102523
09:00+4n238659 0.1 1026267
12:00+8n566310 0.0 10271142
15:00+8nnw565023 0.0 10271383
18:00+7nnw46540 0.0 1027461
21:00+3ne22620 0.0 102929